[[{"header":{"parameterUnit":"m.s-1","parameterCategory":1,"la1":30.2991,"la2":30.254,"lo1":-89.0895,"lo2":-89.0444,"dy":0.0017,"dx":0.0017,"nx":28,"ny":28,"refTime":"2026-01-10T09:00:00:Z","depth":0,"parameterNumber":2,"parameterNumberName":"U-component_of_WINDS"},"data":[0,0,0,0,0,0,0,0,0,0,0,0,0,0,0,0,0,0,0,0,0,0,0,0,0,0,0,0,0,0,0,0,0,0,0,0,0,0,0,0,0,0,0,0,0,0,0,0,0,0,0,0,0,0,0,0,0,0,-3.0629,-3.063,0,-3.0733,-3.0734,-3.0735,-3.0626,-3.0622,-3.0618,-3.0614,-3.0725,-3.0731,-3.0738,0,0,0,0,0,0,0,0,0,0,0,0,0,-3.034,-3.0345,-3.0629,-3.063,-3.0632,-3.0733,-3.0734,-3.0736,-3.0627,-3.0622,-3.0617,-3.0612,-3.0722,-3.073,-3.0739,0,0,0,0,0,0,0,0,0,0,0,0,0,-3.0457,-3.0347,-3.0629,-3.0589,-3.0587,-3.0733,-3.0734,-3.0736,-3.0628,-3.0622,-3.0615,-3.0609,-3.072,-3.073,-3.074,-3.0931,0,0,-3.0772,-3.0776,0,0,0,0,0,0,0,0,-3.045,-3.0468,-3.0594,-3.0592,-3.059,-3.066,-3.0673,-3.0802,-3.063,-3.0613,-3.0613,-3.0606,-3.0709,-3.0719,-3.0753,-3.0936,-3.0941,-3.0772,-3.0779,-3.0783,-3.0786,0,0,0,0,0,0,0,-3.0442,-3.0463,-3.067,-3.0596,-3.0593,-3.0568,-3.0577,-3.0697,-3.0695,-3.0614,-3.0606,-3.0619,-3.0706,-3.0743,-3.0755,-3.0943,-3.0772,-3.0781,-3.0788,-3.0792,-3.1288,-3.1295,0,0,0,0,0,0,-3.0438,-3.0456,-3.0667,-3.0673,-3.0503,-3.0578,-3.0589,-3.0644,-3.0693,-3.0695,-3.0625,-3.0614,-3.0729,-3.0743,-3.0758,-3.0986,-3.0783,-3.0793,-3.0799,-3.1281,-3.129,-3.1297,0,0,0,0,0,0,-3.0432,-3.0458,-3.0663,-3.0563,-3.0587,-3.059,-3.0653,-3.0649,-3.0686,-3.0702,-3.0701,-3.0663,-3.0724,-3.0744,-3.0889,-3.0989,-3.0798,-3.0807,-3.1273,-3.1284,-3.1294,-3.1444,0,0,0,0,0,0,-3.0424,-3.0456,-3.0529,-3.0565,-3.0593,-3.0791,-3.0659,-3.0656,-3.0704,-3.0691,-3.0737,-3.0739,-3.0721,-3.0874,-3.0899,-3.0999,-3.0815,-3.1264,-3.1278,-3.129,-3.143,-3.1458,-3.1482,0,0,0,0,0,-3.0414,-3.0567,-3.0533,-3.0559,-3.0683,-3.0797,-3.0813,-3.0788,-3.0712,-3.0786,-3.0795,-3.0738,-3.0973,-3.089,-3.0917,-3.1022,-3.1258,-3.1274,-3.1289,-3.1418,-3.1452,-3.1481,0,0,0,0,0,0,-3.0544,-3.0572,-3.0533,-3.0703,-3.0748,-3.0778,-3.087,-3.0825,-3.0894,-3.0879,-3.0845,-3.0857,-3.1011,-3.103,-3.0937,-3.121,-3.1103,-3.1125,-3.1192,-3.1225,-3.125,-3.1243,-3.0824,0,0,0,0,0,-3.0592,-3.0682,-3.0701,-3.0848,-3.0873,-3.0868,-3.0917,-3.0893,-3.0939,-3.0959,-3.0979,-3.1027,-3.1112,-3.1169,-3.1248,-3.1431,-3.144,-3.1517,-3.1543,-3.1564,-3.1584,-3.1684,-3.1718,-3.1349,-3.1349,-3.1349,0,0,-3.0693,-3.0719,-3.0778,-3.0875,-3.0908,-3.1002,-3.0885,-3.099,-3.106,-3.0975,-3.1113,-3.113,-3.1181,-3.1347,-3.142,-3.1368,-3.1688,-3.1584,-3.1601,-3.161,-3.1703,-3.1738,-3.1769,-3.136,-3.1358,-3.1356,0,0,-3.0926,-3.0953,-3.108,-3.1114,-3.1164,-3.1159,-3.119,-3.1226,-3.1234,-3.1371,-3.1309,-3.1393,-3.1539,-3.1579,-3.1618,-3.1864,-3.1814,-3.1891,-3.2028,-3.2125,-3.2154,-3.218,-3.227,-3.2302,-3.191,-3.1911,-3.1911,0,-3.1045,-3.1184,-3.1151,-3.126,-3.1306,-3.123,-3.1359,-3.1394,-3.1468,-3.1502,-3.1441,-3.1623,-3.1652,-3.1826,-3.1886,-3.192,-3.1955,-3.1887,-3.2152,-3.2178,-3.2201,-3.2287,-3.232,-3.192,-3.1919,-3.1918,-3.1917,0,-3.133,-3.1427,-3.1523,-3.1595,-3.165,-3.1769,-3.1755,-3.1815,-3.1786,-3.1788,-3.1929,-3.1961,-3.2046,-3.2084,-3.2058,-3.2255,-3.2221,-3.2157,-3.205,-3.2246,-3.2326,-3.2358,-3.1933,-3.1929,-3.1927,-3.1924,0,0,-3.165,-3.17,-3.1736,-3.1768,-3.1817,-3.1892,-3.2007,-3.2087,-3.2141,-3.2194,-3.2291,-3.2415,-3.2356,-3.2401,-3.2378,-3.2463,-3.2657,-3.2388,-3.2389,-3.2439,-3.2878,-3.2928,-3.2966,-3.2623,-3.2629,-3.2634,-3.2875,0,-3.1885,-3.2083,-3.2056,-3.2248,-3.2338,-3.2267,-3.2367,-3.2409,-3.2413,-3.2491,-3.2495,-3.2585,-3.2499,-3.2526,-3.2607,-3.2617,-3.2746,-3.2598,-3.2715,-3.272,-3.2707,-3.3007,-3.3061,-3.3287,-3.2905,-3.2911,-3.2914,0,-3.2186,-3.2249,-3.2449,-3.2484,-3.252,-3.2611,-3.2683,-3.2757,-3.2803,-3.28,-3.285,-3.2811,-3.2927,-3.2816,-3.2976,-3.2877,-3.2922,-3.2934,-3.2942,-3.2955,-3.2831,-3.303,-3.3358,-3.3393,-3.2963,-3.2959,-3.2955,0,-3.2402,-3.2536,-3.2673,-3.2703,-3.2746,-3.2811,-3.2833,-3.2872,-3.2922,-3.2985,-3.3017,-3.3093,-3.3136,-3.3196,-3.3179,-3.3099,-3.3344,-3.3231,-3.3347,-3.3348,-3.3404,-3.3402,-3.3746,-3.343,-3.3429,-3.3429,-3.3428,0,-3.2669,-3.2795,-3.2771,-3.2856,-3.2995,-3.2962,-3.3101,-3.3113,-3.3149,-3.3236,-3.3178,-3.3261,-3.3232,-3.3314,-3.3301,-3.3437,-3.3456,-3.3458,-3.3454,-3.3465,-3.3465,-3.3497,-3.3482,-3.3438,-3.3436,-3.3434,-3.3432,0,-3.2935,-3.2924,-3.3069,-3.3097,-3.3107,-3.3209,-3.3233,-3.3314,-3.3312,-3.3423,-3.3447,-3.3446,-3.3539,-3.3527,-3.3631,-3.3622,-3.3792,-3.3768,-3.3777,-3.3772,-3.389,-3.388,-3.4269,-3.4319,-3.3968,-3.3971,-3.3974,0,-3.3108,-3.3203,-3.3241,-3.3294,-3.3319,-3.3406,-3.3457,-3.3427,-3.3483,-3.3541,-3.3615,-3.3702,-3.3771,-3.3923,-3.3932,-3.4012,-3.399,-3.4121,-3.4002,-3.401,-3.3995,-3.399,-3.4,-3.4145,-3.4149,-3.4153,-3.4155,0,-3.3416,-3.3405,-3.3479,-3.3552,-3.3614,-3.367,-3.372,-3.3767,-3.3743,-3.3808,-3.3901,-3.3955,-3.406,-3.4148,-3.4223,-3.4245,-3.4198,-3.4192,-3.4223,-3.4237,-3.4239,-3.4242,-3.3844,-3.4184,-3.4181,-3.4179,-3.4178,-3.4176,-3.3642,-3.3723,-3.3762,-3.3847,-3.3881,-3.393,-3.4006,-3.4014,-3.4091,-3.4174,-3.4152,-3.4258,-3.4301,-3.4395,-3.4426,-3.451,-3.4462,-3.4507,-3.4519,-3.4531,-3.4546,-3.4224,-3.4523,-3.4522,-3.4521,-3.452,-3.452,0,-3.3948,-3.397,-3.4048,-3.4119,-3.4186,-3.4132,-3.4185,-3.4245,-3.4339,-3.4382,-3.445,-3.4558,-3.4643,-3.4658,-3.4739,-3.4803,-3.4783,-3.4826,-3.4822,-3.4828,-3.4583,-3.4549,-3.484,-3.484,-3.484,-3.484,-3.484,-3.484,-3.4116,-3.4251,-3.4245,-3.4397,-3.4417,-3.452,-3.4555,-3.4599,-3.4633,-3.4756,-3.4826,-3.4834,-3.4866,-3.4949,-3.5025,-3.5027,-3.506,-3.5112,-3.5106,-3.4877,-3.4846,-3.4815,-3.4783,-3.5119,-3.5119,-3.5345,-3.5347,-3.5348]},{"header":{"parameterUnit":"m.s-1","parameterCategory":1,"la1":30.2991,"la2":30.254,"lo1":-89.0895,"lo2":-89.0444,"dy":0.0017,"dx":0.0017,"nx":28,"ny":28,"refTime":"2026-01-10T09:00:00:Z","depth":0,"parameterNumber":3,"parameterNumberName":"V-component_of_WINDS"},"data":[0,0,0,0,0,0,0,0,0,0,0,0,0,0,0,0,0,0,0,0,0,0,0,0,0,0,0,0,0,0,0,0,0,0,0,0,0,0,0,0,0,0,0,0,0,0,0,0,0,0,0,0,0,0,0,0,0,0,-6.4312,-6.4313,0,-6.4413,-6.4414,-6.4415,-6.4321,-6.4317,-6.4313,-6.431,-6.4409,-6.4415,-6.4421,0,0,0,0,0,0,0,0,0,0,0,0,0,-6.4032,-6.4038,-6.4312,-6.4313,-6.4315,-6.4413,-6.4414,-6.4416,-6.4321,-6.4317,-6.4312,-6.4308,-6.4407,-6.4414,-6.4422,0,0,0,0,0,0,0,0,0,0,0,0,0,-6.4145,-6.4039,-6.4312,-6.4279,-6.4278,-6.4413,-6.4414,-6.4416,-6.4322,-6.4317,-6.4311,-6.4306,-6.4404,-6.4413,-6.4423,-6.4593,0,0,-6.4451,-6.4455,0,0,0,0,0,0,0,0,-6.4139,-6.4156,-6.4283,-6.4282,-6.428,-6.4349,-6.4352,-6.4475,-6.4324,-6.4305,-6.4309,-6.4303,-6.4393,-6.4403,-6.4434,-6.4598,-6.4602,-6.4452,-6.4457,-6.4461,-6.4464,0,0,0,0,0,0,0,-6.4131,-6.4151,-6.4352,-6.4285,-6.4283,-6.4258,-6.4268,-6.4375,-6.438,-6.4306,-6.43,-6.4313,-6.4391,-6.4426,-6.4436,-6.4604,-6.4451,-6.446,-6.4465,-6.4469,-6.491,-6.4916,0,0,0,0,0,0,-6.4128,-6.4145,-6.4349,-6.4355,-6.4194,-6.4268,-6.4279,-6.4332,-6.4378,-6.438,-6.4318,-6.4308,-6.4413,-6.4425,-6.4439,-6.4641,-6.4461,-6.447,-6.4475,-6.4904,-6.4911,-6.4918,0,0,0,0,0,0,-6.4122,-6.4147,-6.4344,-6.4248,-6.4271,-6.4279,-6.4339,-6.4337,-6.4371,-6.4387,-6.4387,-6.4353,-6.4409,-6.4426,-6.4555,-6.4643,-6.4474,-6.4482,-6.4897,-6.4906,-6.4915,-6.5046,0,0,0,0,0,0,-6.4114,-6.4145,-6.4212,-6.425,-6.4277,-6.4461,-6.4345,-6.4343,-6.4388,-6.4377,-6.442,-6.4421,-6.4405,-6.4542,-6.4565,-6.4652,-6.449,-6.4889,-6.4901,-6.4912,-6.5034,-6.5059,-6.508,0,0,0,0,0,-6.4105,-6.4244,-6.4216,-6.4241,-6.436,-6.4467,-6.4482,-6.4462,-6.4396,-6.4461,-6.4471,-6.442,-6.463,-6.4556,-6.4581,-6.4673,-6.4883,-6.4898,-6.4911,-6.5024,-6.5054,-6.5079,0,0,0,0,0,0,-6.4214,-6.4249,-6.4217,-6.4374,-6.4418,-6.4451,-6.4533,-6.4495,-6.4558,-6.4544,-6.4516,-6.4526,-6.4663,-6.468,-6.4598,-6.4839,-6.4745,-6.4765,-6.4823,-6.4851,-6.4874,-6.4866,-6.4497,0,0,0,0,0,-6.4257,-6.4342,-6.4367,-6.4502,-6.4526,-6.4526,-6.4572,-6.4553,-6.4597,-6.4615,-6.4634,-6.4677,-6.4753,-6.4803,-6.4873,-6.5036,-6.5043,-6.5111,-6.5134,-6.5153,-6.517,-6.5255,-6.5285,-6.4964,-6.4963,-6.4963,0,0,-6.4345,-6.4375,-6.443,-6.4525,-6.4557,-6.4644,-6.4543,-6.4639,-6.4702,-6.4629,-6.4752,-6.4768,-6.4814,-6.4961,-6.5026,-6.498,-6.526,-6.517,-6.5185,-6.5192,-6.5272,-6.5303,-6.533,-6.4973,-6.4971,-6.497,0,0,-6.4551,-6.4583,-6.4698,-6.4733,-6.4783,-6.4781,-6.4809,-6.4848,-6.4855,-6.4979,-6.4925,-6.4999,-6.513,-6.5165,-6.52,-6.5417,-6.5372,-6.5441,-6.556,-6.5644,-6.5669,-6.5691,-6.5767,-6.5795,-6.5458,-6.5458,-6.5458,0,-6.4654,-6.4785,-6.4762,-6.4863,-6.4905,-6.4843,-6.4959,-6.4993,-6.5063,-6.5093,-6.504,-6.5202,-6.5229,-6.5382,-6.5435,-6.5466,-6.5495,-6.5436,-6.5668,-6.569,-6.571,-6.5782,-6.5811,-6.5466,-6.5465,-6.5464,-6.5464,0,-6.4908,-6.4999,-6.5087,-6.5157,-6.5209,-6.5317,-6.5309,-6.5364,-6.534,-6.5344,-6.5469,-6.5499,-6.5574,-6.5609,-6.5586,-6.5758,-6.5728,-6.5672,-6.5577,-6.5749,-6.5816,-6.5844,-6.5478,-6.5475,-6.5472,-6.547,0,0,-6.5186,-6.5242,-6.5275,-6.5305,-6.5355,-6.5424,-6.5528,-6.5602,-6.5649,-6.5699,-6.5784,-6.5896,-6.5844,-6.5884,-6.5865,-6.5938,-6.6106,-6.5873,-6.5873,-6.5914,-6.6295,-6.6336,-6.6369,-6.6076,-6.6082,-6.6086,-6.6291,0,-6.5393,-6.5575,-6.5557,-6.5729,-6.5811,-6.5753,-6.5843,-6.5882,-6.5888,-6.5958,-6.5963,-6.6043,-6.5969,-6.5993,-6.6063,-6.6071,-6.6182,-6.6056,-6.6153,-6.6157,-6.6143,-6.6404,-6.6448,-6.6641,-6.6317,-6.6322,-6.6325,0,-6.5658,-6.5718,-6.5899,-6.5935,-6.5969,-6.6051,-6.6116,-6.6184,-6.6226,-6.6225,-6.6269,-6.6237,-6.6339,-6.6242,-6.6381,-6.6296,-6.6334,-6.6344,-6.6351,-6.6359,-6.6251,-6.6418,-6.6702,-6.673,-6.6366,-6.6363,-6.636,0,-6.5841,-6.5967,-6.6091,-6.6119,-6.6165,-6.6223,-6.6245,-6.6282,-6.6327,-6.6383,-6.6412,-6.648,-6.6516,-6.6568,-6.6554,-6.6486,-6.6696,-6.6598,-6.6696,-6.6697,-6.6742,-6.674,-6.7035,-6.6769,-6.6769,-6.6768,-6.6768,0,-6.6073,-6.6185,-6.6174,-6.625,-6.6374,-6.6351,-6.6473,-6.6487,-6.652,-6.6596,-6.655,-6.6622,-6.6599,-6.6669,-6.6659,-6.6774,-6.6791,-6.6792,-6.6788,-6.6796,-6.6796,-6.682,-6.6806,-6.6776,-6.6774,-6.6773,-6.6771,0,-6.6298,-6.6295,-6.6426,-6.6459,-6.6469,-6.6559,-6.6585,-6.6656,-6.6658,-6.6755,-6.6776,-6.6779,-6.6859,-6.685,-6.694,-6.6932,-6.7076,-6.7056,-6.7062,-6.7057,-6.7154,-6.7145,-6.7476,-6.7517,-6.7225,-6.7228,-6.723,0,-6.6446,-6.6531,-6.6573,-6.6621,-6.6647,-6.6725,-6.6771,-6.6751,-6.6801,-6.6855,-6.6919,-6.6995,-6.7055,-6.7186,-6.7194,-6.7262,-6.7243,-6.7354,-6.7252,-6.7257,-6.7243,-6.7237,-6.7245,-6.7373,-6.7377,-6.7379,-6.7382,0,-6.6708,-6.6702,-6.6771,-6.6839,-6.6895,-6.6948,-6.6995,-6.7037,-6.7021,-6.7079,-6.7161,-6.7208,-6.7299,-6.7375,-6.7439,-6.7458,-6.7418,-6.7414,-6.7439,-6.7448,-6.7448,-6.7448,-6.7115,-6.7406,-6.7403,-6.7402,-6.74,-6.7399,-6.6898,-6.697,-6.7011,-6.7088,-6.7122,-6.7167,-6.7235,-6.7245,-6.7314,-6.7388,-6.7371,-6.7464,-6.7502,-6.7583,-6.761,-6.768,-6.7639,-6.7677,-6.7687,-6.7696,-6.7707,-6.7438,-6.7692,-6.7691,-6.769,-6.769,-6.7689,0,-6.7156,-6.7179,-6.7251,-6.7319,-6.738,-6.7337,-6.7387,-6.744,-6.7522,-6.7562,-6.7622,-6.7715,-6.7788,-6.7802,-6.7871,-6.7925,-6.7907,-6.7943,-6.7939,-6.7943,-6.774,-6.771,-6.7956,-6.7956,-6.7956,-6.7956,-6.7956,-6.7956,-6.7298,-6.7418,-6.7416,-6.7551,-6.7573,-6.7664,-6.7696,-6.7736,-6.7768,-6.7875,-6.7936,-6.7945,-6.7974,-6.8044,-6.8108,-6.811,-6.8137,-6.8181,-6.8175,-6.7985,-6.7958,-6.7933,-6.7904,-6.8187,-6.8187,-6.8372,-6.8374,-6.8375]}]]